TheGetRank SiteMap Page 2558
Home 2508 2509 2510 2511 2512 2513 2514 2515 2516 2517 2518 2519 2520 2521 2522 2523 2524 2525 2526 2527 2528 2529 2530 2531 2532 2533 2534 2535 2536 2537 2538 2539 2540 2541 2542 2543 2544 2545 2546 2547 2548 2549 2550 2551 2552 2553 2554 2555 2556 2557 2558 2559 2560 2561 2562 2563 2564 2565 2566 2567 2568 2569 2570 2571 2572 2573 2574 2575 2576 2577 2578 2579 2580 2581 2582 2583 2584 2585 2586 2587 2588 2589 2590 2591 2592 2593 2594 2595 2596 2597 2598 2599 2600 2601 2602 2603 2604 2605 2606 2607 2608
S.NO. Website Pagerank Alexa Rank Last Updated
2557000 txweibo.com 0 No Rank 2011-09-21 15:36:45
2557001 zeusmetals.com 3 No Rank 2011-09-20 05:12:35
2557002 zango.com.mx 0 No Rank 2011-09-20 05:12:35
2557003 synalogic.com 0 12151217 2011-09-21 14:15:45
2557004 kayjet.com 3 No Rank 2011-09-20 05:12:40
2557005 afsgadvantage.com 0 No Rank 2011-09-20 05:12:41
2557006 afisha34.ru 2 5155520 2011-09-20 05:12:43
2557007 preazyprep.com 2 No Rank 2011-09-21 15:07:20
2557008 kayuusya.jp 1 No Rank 2011-09-20 05:12:46
2557009 agency-4p.ru 1 No Rank 2011-09-20 05:12:46
2557010 aggregate-den.com 0 No Rank 2011-09-20 05:12:48
2557011 acesteamclean.com 1 18801389 2011-09-20 05:12:52
2557012 go7.co.kr 2 No Rank 2011-09-20 05:12:52
2557013 ahrco.com 2 No Rank 2011-09-20 05:12:52
2557014 agregaty-malarskie.pl 1 No Rank 2011-09-20 05:12:53
2557015 alfalakspd.com 4 20134098 2011-09-20 05:12:56
2557016 21stcentury.iphone4onderdelen.nl 0 3286995 2011-09-20 05:12:57
2557017 kcconcept.com 0 9334912 2011-09-20 05:13:01
2557018 alicejung.com 1 16713276 2011-09-20 05:13:02
2557019 alfheller.ch 2 No Rank 2011-09-20 05:13:05
2557020 uslugi.gardenplanet.pl 3 950096 2011-09-20 05:13:08
2557021 carloansuperb.com 0 No Rank 2011-09-20 05:13:11
2557022 altasup.com 1 6228704 2011-09-20 05:13:12
2557023 ame-services.com 0 No Rank 2011-09-20 05:13:16
2557024 maps.greengangmovers.com 0 No Rank 2011-09-20 05:13:18
2557025 ponnuki.net 2 922770 2011-09-20 05:13:20
2557026 ramldrs.com 1 No Rank 2011-09-20 05:13:22
2557027 polymercompositesinc.com 2 7305815 2011-09-20 05:13:23
2557028 allinclusivebeachvacations.academia.edu 0 4797 2011-09-20 05:13:24
2557029 podologiedresden.de 0 16697359 2011-09-20 05:13:26
2557030 keenechamber.com 4 2574970 2011-09-20 05:13:27
2557031 richardkouchoo.com.au 1 No Rank 2011-09-21 14:18:16
2557032 plushhairextensions.com 0 No Rank 2011-09-20 05:13:30
2557033 plytkizkamienia.pl 0 16155830 2011-09-20 05:13:36
2557034 plattecityhomes.com 0 No Rank 2011-09-20 05:13:37
2557035 pinoyfoodvideo.com 0 14535640 2011-09-20 05:13:40
2557036 pic-s.fr 3 No Rank 2011-09-20 05:13:46
2557037 uslyszecswiat.org.pl 3 19019271 2011-09-20 05:13:48
2557038 petshopboysinparis.free.fr 3 207 2011-09-20 05:13:50
2557039 pgcases.com 0 No Rank 2011-09-20 05:13:50
2557040 peoplesgeographyproject.org 3 No Rank 2011-09-20 05:13:56
2557041 spaceportcycles.com 2 22819222 2011-09-20 05:13:57
2557042 digitaloutput.net 4 1037232 2011-09-20 05:13:58
2557043 pencak-silat.ch 1 No Rank 2011-09-20 05:14:00
2557044 peacebypiececounseling.com 1 No Rank 2011-09-20 05:14:01
2557045 kdevelop.org 6 609040 2011-09-20 05:14:02
2557046 patrickgarner.com 2 No Rank 2011-09-20 05:14:05
2557047 hotties-tips.blogspot.com 2 No Rank 2011-09-20 05:14:06
2557048 horseandstable.com 0 No Rank 2011-09-20 05:14:06
2557049 parkshoredaycamp.com 2 535489 2011-09-20 05:14:07
2557050 hotelhaitao.com 1 15831203 2011-09-20 05:14:08
2557051 hoteldieux.com 0 7342099 2011-09-20 05:14:09
2557052 hoteldigitalsignage.com.au 2 No Rank 2011-09-20 05:14:09
2557053 hotdirectory.us 0 14400717 2011-09-20 05:14:11
2557054 parkpsychiatry.com 1 15042183 2011-09-20 05:14:11
2557055 horecalink.nl 0 6922976 2011-09-20 05:14:12
2557056 dohabank.com.qa 6 107499 2011-09-20 05:14:12
2557057 hoshinogakki.co.jp 4 1241504 2011-09-20 05:14:12
2557058 software-order.com 0 No Rank 2011-09-20 05:14:12
2557059 paradisecomputerservices.com 0 No Rank 2011-09-20 05:14:13
2557060 hospitalitycareernet.com 5 No Rank 2011-09-20 05:14:13
2557061 hostnexus.com 5 185406 2011-09-20 05:14:14
2557062 horticole.com 4 2683368 2011-09-20 05:14:15
2557063 horlogehuis.com 3 No Rank 2011-09-20 05:14:15
2557064 hotelzefir.pl 1 No Rank 2011-09-20 05:14:16
2557065 paperlovesjewelrybox.com 1 No Rank 2011-09-20 05:14:16
2557066 paperchaseboca.net 2 No Rank 2011-09-20 05:14:17
2557067 horatiogates.com 0 No Rank 2011-09-20 05:14:18
2557068 hostingcentar.com 4 1377132 2011-09-20 05:14:18
2557069 hostspain.net 2 6279012 2011-09-20 05:14:19
2557070 hotel-zwiesel.de 3 9371265 2011-09-20 05:14:19
2557071 hotel-positano.com 0 No Rank 2011-09-20 05:14:21
2557072 house35.com 3 No Rank 2011-09-20 05:14:22
2557073 pag.gr 1 No Rank 2011-09-20 05:14:22
2557074 hotelbuk.com 4 No Rank 2011-09-20 05:14:22
2557075 paawareness.org 4 1446733 2011-09-20 05:14:23
2557076 hortiview.nl 0 No Rank 2011-09-20 05:14:23
2557077 hot-cities.com 0 No Rank 2011-09-20 05:14:24
2557078 hotel-europeenne.com 2 No Rank 2011-09-20 05:14:24
2557079 horwathrg.com 3 No Rank 2011-09-20 05:14:25
2557080 hotfetishchat.com 0 14054584 2011-09-20 05:14:25
2557081 host4resell.com 2 No Rank 2011-09-20 05:14:26
2557082 hotelsantafeguam.com 4 7694837 2011-09-20 05:14:27
2557083 outwestphotography.com 2 11161911 2011-09-20 05:14:27
2557084 hotel-britannique.fr 4 1251907 2011-09-20 05:14:28
2557085 ancosan.com 4 No Rank 2011-09-20 05:14:28
2557086 ww1.universal-life.cc 3 No Rank 2011-09-20 05:14:28
2557087 hot16888.com 0 No Rank 2011-09-20 05:14:29
2557088 hotelelfaro.com 3 20065397 2011-09-20 05:14:31
2557089 kelldar.com 2 21876338 2011-09-20 05:14:31
2557090 hosting.agava.com 6 35217 2011-09-20 05:14:31
2557091 host5156.com 0 715953 2011-09-20 05:14:31
2557092 outdoorandsportinggoods.com 0 No Rank 2011-09-20 05:14:32
2557093 hotels4you.ch 4 4068435 2011-09-20 05:14:32
2557094 hotelnazionale.it 4 2255092 2011-09-20 05:14:32
2557095 hopmarjanneke.nl 4 No Rank 2011-09-20 05:14:34
2557096 hpopinions.com 0 No Rank 2011-09-20 05:14:34
2557097 howdenssewingmachines.co.uk 2 9706027 2011-09-20 05:14:36
2557098 hski.huuryuu.com 2 324387 2011-09-20 05:14:36
2557099 horizonnetworks.com 0 No Rank 2011-09-21 15:33:12
2557100 hostcommunications.com 0 No Rank 2011-09-21 15:22:22
2557101 hoteles-grecia.com 3 19157714 2011-09-20 05:14:36
2557102 hsindustrial.com 0 No Rank 2011-09-21 14:52:49
2557103 hownp.org 2 11743504 2011-09-20 05:14:37
2557104 housyoutei.com 3 1956972 2011-09-20 05:14:37
2557105 ourthirstyworld.org 0 No Rank 2011-09-20 05:14:37
2557106 oudemotoren.nl 1 No Rank 2011-09-20 05:14:37
2557107 hpsoccer.com 3 11079568 2011-09-20 05:14:38
2557108 hozting.com 1 No Rank 2011-09-20 05:14:39
2557109 playstationfever.com 1 8291412 2011-09-20 05:14:40
2557110 angagamaldives.com 0 No Rank 2011-09-20 05:14:40
2557111 houstonracquetclub.com 3 9227442 2011-09-20 05:14:41
2557112 hrsjz.com 1 No Rank 2011-09-20 05:14:41
2557113 hppolice.nic.in 5 4143617 2011-09-20 05:14:41
2557114 htmltricks.com 4 1582154 2011-09-20 05:14:42
2557115 oreldorteh.ru 2 No Rank 2011-09-20 05:14:43
2557116 httpjoke.com 3 4149603 2011-09-20 05:14:43
2557117 hr.a8.com 0 97505 2011-09-21 14:59:22
2557118 huangzd99.blog.chinathink.net 3 391275 2011-09-21 12:35:16
2557119 optimac.co.za 1 No Rank 2011-09-20 05:14:46
2557120 hu-mgt.com 1 7885220 2011-09-20 05:14:47
2557121 dongjiabao.com 0 No Rank 2011-09-21 14:41:07
2557122 hqdesign.hu 4 6460672 2011-09-20 05:14:48
2557123 houstonjunkcar.com 1 1104763 2011-09-20 05:14:50
2557124 how-to-lose-weight-fast.us 1 8919468 2011-09-20 05:14:51
2557125 hoytarchitects.com 1 15509312 2011-09-20 05:14:51
2557126 onegreen.com.sg 3 11547352 2011-09-20 05:14:51
2557127 hrforum.co.uk 4 3252519 2011-09-20 05:14:51
2557128 hqgg.com 3 No Rank 2011-09-20 05:14:51
2557129 huaxingglove.chinanusa.com 0 6885326 2011-09-20 05:14:52
2557130 hsbcgolf.com 4 662193 2011-09-20 05:14:53
2557131 howtogetmyloveback.com 0 5163850 2011-09-20 05:14:53
2557132 annettedavis.com 1 No Rank 2011-09-20 05:14:53
2557133 howtosmallbusiness.blogspot.com 0 6008743 2011-09-20 05:14:54
2557134 hsjdsb.com 0 No Rank 2011-09-20 05:14:55
2557135 howrahbridge.com 0 18692809 2011-09-20 05:14:56
2557136 gxjixie.com 0 No Rank 2011-09-21 12:56:57
2557137 i-heart-sushi.net 1 26609411 2011-09-20 05:14:58
2557138 huret.com 4 No Rank 2011-09-20 05:14:59
2557139 i-hud.com 3 15660558 2011-09-20 05:15:01
2557140 hydrofueler.com 0 No Rank 2011-09-20 05:15:02
2557141 housesittersltd.com 0 No Rank 2011-09-20 05:15:04
2557142 huidawo.com 3 No Rank 2011-09-20 05:15:04
2557143 hudhre.info 6 1070282 2011-09-20 05:15:04
2557144 hugeguide.com 0 No Rank 2011-09-20 05:15:05
2557145 humanfactorstraining.com 0 No Rank 2011-09-20 05:15:06
2557146 human-disorders.blogspot.com 0 No Rank 2011-09-20 05:15:07
2557147 oilchangerichmondva.com 1 No Rank 2011-09-20 05:15:08
2557148 hubergmbh.com 3 4665486 2011-09-20 05:15:08
2557149 humanneuro.physiol.umu.se 5 29200 2011-09-20 05:15:10
2557150 kellyautomotivegroup.com 0 No Rank 2011-09-20 05:15:11
2557151 hunterdon-online.com 6 No Rank 2011-09-20 05:15:11
2557152 offtheairlive.com 3 18475985 2011-09-20 05:15:13
2557153 rb.palmettocitizens.org 0 538340 2011-09-21 15:10:16
2557154 hs7911319.com 1 No Rank 2011-09-21 14:49:45
2557155 hvvhattem.nl 3 No Rank 2011-09-20 05:15:14
2557156 huiwentan.com.cn 2 No Rank 2011-09-20 05:15:15
2557157 hy.9991.com 0 6149 2011-09-20 05:15:15
2557158 huertoseden.com 3 No Rank 2011-09-20 05:15:16
2557159 hytcorp.net 0 No Rank 2011-09-20 05:15:17
2557160 huluobo.com 0 No Rank 2011-09-21 13:06:09
2557161 huihui-transformer.com 0 No Rank 2011-09-20 05:15:19
2557162 ofertakalendarzy.pl 3 8530169 2011-09-20 05:15:19
2557163 hueyme.com 0 No Rank 2011-09-20 05:15:20
2557164 hurricanefutballclub.org 2 19775686 2011-09-21 14:56:37
2557165 hzjdsj.cn 1 No Rank 2011-09-20 05:15:20
2557166 nyro.info 2 No Rank 2011-09-20 05:15:22
2557167 hymqz.com 0 No Rank 2011-09-21 13:05:29
2557168 hzbod.com 0 No Rank 2011-09-21 14:52:13
2557169 hunderfossen.no 4 617382 2011-09-20 05:15:23
2557170 i-one-net.com 4 267692 2011-09-20 05:15:24
2557171 ibatmancomics.com 1 No Rank 2011-09-20 05:15:24
2557172 hudong.com.cn 4 No Rank 2011-09-20 05:15:26
2557173 noblebasketball.com 1 No Rank 2011-09-21 14:59:05
2557174 northcarolinaboats.com 2 7294507 2011-09-20 05:15:26
2557175 mfa1.palmettocitizens.org 0 538340 2011-09-21 15:31:29
2557176 i-d21.de 4 795859 2011-09-20 05:15:27
2557177 i105107.ie 4 4587143 2011-09-20 05:15:28
2557178 huntex.com.tw 2 19815965 2011-09-21 14:59:11
2557179 hypo-vakblad.nl 3 No Rank 2011-09-20 05:15:30
2557180 i-gistix.com 1 No Rank 2011-09-20 05:15:30
2557181 i3.sjtea.com 0 No Rank 2011-09-20 05:15:31
2557182 hubertphoto.com 2 No Rank 2011-09-20 05:15:32
2557183 hzzjb.com 1 No Rank 2011-09-20 05:15:33
2557184 huntinglodges.com 0 No Rank 2011-09-20 05:15:33
2557185 majesticcaravans.rvpoint.ninemsn.com.au 0 877 2011-09-20 05:15:33
2557186 hyjw.com 2 No Rank 2011-09-21 13:42:48
2557187 nioliem.com 1 No Rank 2011-09-20 05:15:34
2557188 nitrogenpaintballtanks.com 0 26803799 2011-09-20 05:15:34
2557189 hxfocus.com 0 8431114 2011-09-20 05:15:34
2557190 hueydate.com 0 No Rank 2011-09-20 05:15:34
2557191 hypermart-inc.net 5 No Rank 2011-09-20 05:15:35
2557192 hungary.org.tw 5 8590956 2011-09-20 05:15:37
2557193 iacadv.net 0 No Rank 2011-09-20 05:15:37
2557194 husa.nl 2 No Rank 2011-09-20 05:15:37
2557195 hurst.co.uk 2 4186647 2011-09-20 05:15:37
2557196 ibcitech.com 3 No Rank 2011-09-20 05:15:38
2557197 hypo.ge-dip.etat-ge.ch 0 2518579 2011-09-21 15:22:48
2557198 nibblings.com 1 No Rank 2011-09-20 05:15:39
2557199 huiuk.com 2 No Rank 2011-09-20 05:15:39
2557200 nicetranslation.com 2 10524606 2011-09-20 05:15:40
2557201 icaitoronto.org 0 No Rank 2011-09-20 05:15:40
2557202 icarlyextras.com 0 No Rank 2011-09-20 05:15:40
2557203 hududd.com 0 No Rank 2011-09-20 05:15:41
2557204 regalmarine.boatpoint.com.au 0 877 2011-09-20 05:15:41
2557205 iacb.net 0 No Rank 2011-09-21 14:15:56
2557206 ibexproductions.com 0 No Rank 2011-09-20 05:15:42
2557207 ibite.net 0 No Rank 2011-09-20 05:15:43
2557208 newcastleconstruction-oftx.com 0 No Rank 2011-09-20 05:15:43
2557209 iau-birjand.ac.ir 5 927909 2011-09-20 05:15:44
2557210 iamskills.com 1 No Rank 2011-09-20 05:15:45
2557211 icannatlarge.com 5 No Rank 2011-09-20 05:15:45
2557212 iamkarthik.com 1 265640 2011-09-20 05:15:46
2557213 iannuccibuilding.com 0 No Rank 2011-09-20 05:15:47
2557214 iactwater.com 0 17563245 2011-09-20 05:15:48
2557215 ibssteel.com 0 No Rank 2011-09-20 05:15:48
2557216 negamusic.com 3 9159942 2011-09-20 05:15:48
2557217 iccc.i-go.to 3 16783803 2011-09-20 05:15:48
2557218 ibisgroup.com 2 27387098 2011-09-20 05:15:49
2557219 nextbay.net 3 No Rank 2011-09-20 05:15:50
2557220 ib-sud.com 0 No Rank 2011-09-20 05:15:50
2557221 kellyrichardsoncopywriting.com 0 16550561 2011-09-20 05:15:51
2557222 idx.co.uk 3 No Rank 2011-09-20 05:15:51
2557223 icfconsulting.com 7 No Rank 2011-09-20 05:15:52
2557224 ichikoh.com 4 1417147 2011-09-20 05:15:52
2557225 roadwest.ihub.com.au 0 1780360 2011-09-20 05:15:53
2557226 icguys.com 3 785175 2011-09-20 05:15:53
2557227 ndroidz.com 2 21597907 2011-09-20 05:15:54
2557228 idahocitychamber.com 4 4668114 2011-09-20 05:15:54
2557229 ncticolorado.com 0 No Rank 2011-09-20 05:15:54
2557230 i.1asphost.com 0 143363 2011-09-21 15:38:56
2557231 ichurchleiden.nl 4 25634061 2011-09-20 05:15:56
2557232 ideakone.fi 5 5017272 2011-09-20 05:15:57
2557233 ida.co.uk 2 7747773 2011-09-20 05:15:57
2557234 idtenergystore.com 3 22929410 2011-09-20 05:15:57
2557235 id.readyspace.com 0 1079531 2011-09-20 05:15:58
2557236 nbonow.com 2 No Rank 2011-09-20 05:15:59
2557237 kenjelimiet.nl 3 No Rank 2011-09-20 05:15:59
2557238 icpproducts.com 0 No Rank 2011-09-20 05:15:59
2557239 icsconnect.com 4 6235975 2011-09-20 05:16:00
2557240 icemocha.com 0 No Rank 2011-09-20 05:16:01
2557241 icemasters.net 2 No Rank 2011-09-20 05:16:01
2557242 icechewing.com 4 2512727 2011-09-20 05:16:02
2557243 ictconnection.nl 2 No Rank 2011-09-20 05:16:02
2557244 idealinvest.com.br 3 2676443 2011-09-20 05:16:02
2557245 nationwidebarriers.com 0 No Rank 2011-09-20 05:16:03
2557246 iconicspkrs.com 2 No Rank 2011-09-20 05:16:03
2557247 ichikawa-yaku.or.jp 3 No Rank 2011-09-20 05:16:03
2557248 veronese.pl 1 No Rank 2011-09-20 05:16:03
2557249 nassaulibrary.com 0 18036236 2011-09-20 05:16:04
2557250 icework.co.uk 2 11984563 2011-09-20 05:16:04
2557251 brianthredgold.carpoint.ninemsn.com.au 0 877 2011-09-20 05:16:04
2557252 idownsoft.com 0 3853277 2011-09-20 05:16:06
2557253 ideorg.org 6 841987 2011-09-20 05:16:07
2557254 idasrc.org 4 23992394 2011-09-20 05:16:07
2557255 icontent-delivery.com 0 14737629 2011-09-20 05:16:07
2557256 idic.ca 3 13652801 2011-09-20 05:16:08
2557257 ice.jcom.to 3 39706 2011-09-20 05:16:08
2557258 icit-solutions.nl 4 No Rank 2011-09-20 05:16:10
2557259 najwanhalimi.com 3 12218170 2011-09-20 05:16:10
2557260 ifose.org 3 No Rank 2011-09-20 05:16:11
2557261 vertexcz.cz 2 14038747 2011-09-20 05:16:12
2557262 idealibrary.com 0 12290272 2011-09-21 15:19:04
2557263 nailscouture.nl 1 No Rank 2011-09-20 05:16:13
2557264 igorr_ru.tripod.com 3 662 2011-09-21 15:29:53
2557265 igloomedia.com 2 11405229 2011-09-20 05:16:13
2557266 ikarya.com 4 No Rank 2011-09-20 05:16:13
2557267 ifitness.it 1 No Rank 2011-09-20 05:16:13
2557268 iipsonline.com 5 2859242 2011-09-21 14:42:41
2557269 mysticmtndesigns.com 2 4148605 2011-09-20 05:16:16
2557270 nahodka.ru 1 2025697 2011-09-20 05:16:16
2557271 iheartkeira.net 2 No Rank 2011-09-20 05:16:18
2557272 eu-imperial.ru 2 3160312 2011-09-20 05:16:19
2557273 iho.shom.fr 6 216041 2011-09-20 05:16:19
2557274 stroudpriest.com 2 No Rank 2011-09-20 05:16:19
2557275 ihp.sinica.edu.tw 7 37882 2011-09-21 14:10:57
2557276 myseachange.net 0 No Rank 2011-09-20 05:16:20
2557277 mysocialfriendsbook.com 0 4294748 2011-09-20 05:16:21
2557278 iep-berlin.de 6 5956371 2011-09-20 05:16:21
2557279 ignace.org 1 No Rank 2011-09-20 05:16:21
2557280 iethomson.com 0 No Rank 2011-09-20 05:16:23
2557281 ieci.com.au 4 3622923 2011-09-20 05:16:23
2557282 iforce.co.kr 0 No Rank 2011-09-21 12:50:31
2557283 igaware.co.uk 4 No Rank 2011-09-20 05:16:25
2557284 mygallbladder.com 0 No Rank 2011-09-20 05:16:25
2557285 imcinternet.net 3 5327722 2011-09-20 05:16:25
2557286 imadamasaru.com 3 No Rank 2011-09-20 05:16:28
2557287 immigration.us.com 4 No Rank 2011-09-20 05:16:29
2557288 mydarlinganna.com 2 No Rank 2011-09-20 05:16:30
2557289 ilovestillwater.com 4 4131979 2011-09-20 05:16:30
2557290 music.karashome.boo.pl 2 34028 2011-09-20 05:16:31
2557291 ikgrane.no 3 No Rank 2011-09-21 14:18:32
2557292 ilenedesigns.com 1 No Rank 2011-09-20 05:16:31
2557293 imedserv.com 2 13575639 2011-09-20 05:16:31
2557294 imagemechanic.com 2 No Rank 2011-09-20 05:16:32
2557295 illusiadesign.com 3 No Rank 2011-09-20 05:16:32
2557296 imdn.org 0 No Rank 2011-09-20 05:16:32
2557297 imacbutton.com 0 No Rank 2011-09-20 05:16:33
2557298 imphoto.co.uk 1 No Rank 2011-09-20 05:16:34
2557299 imajnmedia.com 0 No Rank 2011-09-20 05:16:34
2557300 imaging.gnads4u.com 0 16725 2011-09-20 05:16:35
2557301 images.google.ad 6 89918 2011-09-20 05:16:35
2557302 illseed.com 0 1156330 2011-09-20 05:16:36
2557303 mssusans.com 1 No Rank 2011-09-20 05:16:37
2557304 ikusei.ac.jp 4 3213249 2011-09-20 05:16:37
2557305 ilfood.org 3 10435957 2011-09-20 05:16:37
2557306 ilpescara.it 4 510684 2011-09-20 05:16:37
2557307 videos.doctissimo.fr 4 1020 2011-09-20 05:16:38
2557308 immigrantlawyer.com 0 No Rank 2011-09-21 15:37:12
2557309 images.google.mg 6 6249 2011-09-20 05:16:39
2557310 images.google.me 6 175071 2011-09-20 05:16:39
2557311 msz.ro 2 4863984 2011-09-20 05:16:39
2557312 images.google.com.jm 6 8999 2011-09-20 05:16:40
2557313 immenseboobs.com 0 28245332 2011-09-21 14:50:26
2557314 immsee.com 0 No Rank 2011-09-20 05:16:41
2557315 msjonesrules.com 1 No Rank 2011-09-20 05:16:41
2557316 ikoma-plin.hr 3 2373060 2011-09-20 05:16:43
2557317 mq-champel.ch 4 No Rank 2011-09-20 05:16:43
2557318 imprintsusa.com 2 3780347 2011-09-20 05:16:45
2557319 idczhan.com 0 No Rank 2011-09-20 05:16:45
2557320 improvsys.com 4 14053053 2011-09-20 05:16:45
2557321 johannesburg.qfxyzwaomsb.blogspot.com 0 No Rank 2011-09-20 05:16:45
2557322 motoroilinc.com 2 17094990 2011-09-20 05:16:46
2557323 import.jwfu.com 2 144608 2011-09-20 05:16:46
2557324 imprev.com 2 2334986 2011-09-20 05:16:47
2557325 imprexpo.com 2 13545818 2011-09-20 05:16:47
2557326 ieee.uow.edu.au 0 51069 2011-09-21 14:53:11
2557327 mortgagefraudexaminers.com 3 3584125 2011-09-20 05:16:48
2557328 mycoffeeteaandtulips.com 2 15281085 2011-09-20 05:16:48
2557329 importgo.com 2 21140869 2011-09-20 05:16:48
2557330 info-hobby.blogspot.com 0 No Rank 2011-09-20 05:16:49
2557331 incaholidays.com 2 No Rank 2011-09-20 05:16:50
2557332 in2net.com 6 238300 2011-09-20 05:16:50
2557333 imzoom.info 4 6623430 2011-09-20 05:16:50
2557334 moorgle.com 0 5664219 2011-09-20 05:16:53
2557335 imsofun.com 0 No Rank 2011-09-20 05:16:54
2557336 indigita.com 3 26501054 2011-09-20 05:16:54
2557337 inflatableboatparts.com 3 1401661 2011-09-20 05:16:55
2557338 kentington.com.tw 5 3371131 2011-09-21 15:17:00
2557339 allsportsnewssource.info 0 No Rank 2011-09-20 05:16:57
2557340 morlalaw.com 3 4350674 2011-09-20 05:16:57
2557341 moodybluesbulldogges.com 1 No Rank 2011-09-20 05:16:57
2557342 incinerateur.non.free.fr 3 207 2011-09-20 05:16:58
2557343 inbelgium.be 4 1430629 2011-09-20 05:16:58
2557344 infact.org 6 No Rank 2011-09-20 05:16:58
2557345 indola.nl 4 No Rank 2011-09-21 15:33:27
2557346 store1.iphone4onderdelen.nl 0 3286995 2011-09-20 05:17:00
2557347 independentnursing.com 4 9334037 2011-09-20 05:17:01
2557348 indiacoffee.org 5 805672 2011-09-20 05:17:01
2557349 inaughty.com 0 No Rank 2011-09-20 05:17:01
2557350 indicatorcz.cz 3 No Rank 2011-09-20 05:17:03
2557351 indorse.net 4 No Rank 2011-09-20 05:17:03
2557352 mo4i.net 0 No Rank 2011-09-20 05:17:03
2557353 indorsetech.com 4 No Rank 2011-09-20 05:17:04
2557354 villacarmen.net 0 11281017 2011-09-20 05:17:05
2557355 indialink.com 6 5827442 2011-09-20 05:17:06
2557356 mmmsteak.com 0 18706507 2011-09-20 05:17:06
2557357 indianwildlifeclub.com 4 438949 2011-09-20 05:17:06
2557358 indiaoutdoors.com 3 No Rank 2011-09-21 14:35:16
2557359 in2j.com 2 No Rank 2011-09-20 05:17:08
2557360 indonesianfoodculinary.blogspot.com 1 16509711 2011-09-20 05:17:09
2557361 mldisco.nl 0 No Rank 2011-09-20 05:17:11
2557362 inkjetswapmeet.com 1 No Rank 2011-09-20 05:17:11
2557363 incharge.nl 3 No Rank 2011-09-20 05:17:11
2557364 ims-webdesign.de 1 No Rank 2011-09-20 05:17:11
2557365 inmass.com 4 13943827 2011-09-20 05:17:12
2557366 inkspotts.biz 1 No Rank 2011-09-20 05:17:14
2557367 inpracticesoftware.com 3 11374374 2011-09-20 05:17:14
2557368 infowing.ie 4 7159102 2011-09-20 05:17:15
2557369 innatlostcreek.com 4 7687683 2011-09-20 05:17:15
2557370 indoriente.com 3 No Rank 2011-09-20 05:17:15
2557371 inquadra.com 0 No Rank 2011-09-20 05:17:16
2557372 mixedmediacollageartists.com 0 No Rank 2011-09-20 05:17:17
2557373 initforlife.org 2 No Rank 2011-09-20 05:17:17
2557374 kepc.org 3 13327171 2011-09-20 05:17:18
2557375 miquelquintana.cat 4 9010203 2011-09-20 05:17:18
2557376 infonews.lt 4 9310754 2011-09-20 05:17:19
2557377 innvestreithotels.com 4 5421143 2011-09-20 05:17:20
2557378 infinityspeaker.com 5 324567 2011-09-21 12:59:08
2557379 innmtnview.com 4 3300599 2011-09-20 05:17:21
2557380 inlandftc.com 0 No Rank 2011-09-20 05:17:23
2557381 minnesotamopeds.com 0 No Rank 2011-09-20 05:17:24
2557382 info.vpro.nl 5 22737 2011-09-20 05:17:24
2557383 inkythuatso.com 4 1397848 2011-09-20 05:17:25
2557384 inovonics.com 4 2795687 2011-09-20 05:17:25
2557385 infoexpressz.hu 0 No Rank 2011-09-20 05:17:25
2557386 indecencia.com.br 0 No Rank 2011-09-21 14:42:02
2557387 kenyamaha.pair.com 0 9593 2011-09-20 05:17:27
2557388 inhomecareandmore.com 1 No Rank 2011-09-20 05:17:27
2557389 milenderwhite.com 3 5465640 2011-09-20 05:17:28
2557390 infogurus.com 1 No Rank 2011-09-20 05:17:28
2557391 injectable-filler.com 0 No Rank 2011-09-20 05:17:30
2557392 infoseceng.com 3 10892459 2011-09-20 05:17:31
2557393 infolytica.com 5 2089267 2011-09-20 05:17:31
2557394 infoszkoly.pl 3 9132280 2011-09-20 05:17:31
2557395 millenniumtowncarservice.com 0 9107050 2011-09-20 05:17:32
2557396 innoqare.nl 2 No Rank 2011-09-20 05:17:32
2557397 infomedica.se 7 6611667 2011-09-20 05:17:32
2557398 midwestmusic.com 2 No Rank 2011-09-20 05:17:33
2557399 infoblogdofollow.blogspot.com 3 5663344 2011-09-20 05:17:33
2557400 innmh.com 0 No Rank 2011-09-20 05:17:33
2557401 inshop.sk 4 816629 2011-09-20 05:17:36
2557402 innovatis.ch 3 20177507 2011-09-20 05:17:37
2557403 kepesmotor.hu 3 129297 2011-09-20 05:17:37
2557404 insel-usedom.net 4 648228 2011-09-20 05:17:37
2557405 insight-builder.com 4 No Rank 2011-09-20 19:36:34
2557406 midgetgolf-dikkenberg.nl 2 No Rank 2011-09-20 05:17:38
2557407 metrocardcalculator.com 3 21776384 2011-09-20 05:17:38
2557408 insitewebdesign.com 3 8507460 2011-09-20 05:17:39
2557409 inrock.co.jp 2 1640608 2011-09-20 05:17:40
2557410 meshproducts.org 1 No Rank 2011-09-20 05:17:42
2557411 interim-plus.nl 3 11458929 2011-09-20 05:17:42
2557412 insurance-loans-mortgages.com 0 675227 2011-09-20 05:17:44
2557413 int-web.jp 2 No Rank 2011-09-20 05:17:44
2557414 meloisdope.com 0 10937038 2011-09-20 05:17:45
2557415 villarowy.pl 1 No Rank 2011-09-20 05:17:45
2557416 interiors.com.cn 1 No Rank 2011-09-20 05:17:46
2557417 interim.nl 4 No Rank 2011-09-20 05:17:46
2557418 interdean.com 3 873820 2011-09-20 05:17:47
2557419 inspira.es 3 5268476 2011-09-20 05:17:47
2557420 initium.demon.co.uk 2 13866 2011-09-21 14:37:34
2557421 intelligentbackgrndck.com 3 13608775 2011-09-20 05:17:48
2557422 intelinfo.com 5 26693228 2011-09-20 05:17:49
2557423 intermar-ltd.ro 3 18900315 2011-09-20 05:17:49
2557424 media-policy.org 4 No Rank 2011-09-20 05:17:49
2557425 intelliweather.com 3 866540 2011-09-20 05:17:50
2557426 instrument-specialists.com 3 8894495 2011-09-20 05:17:50
2557427 intensepaintball.net 2 24073519 2011-09-21 12:57:29
2557428 cavmen.home.iphone4onderdelen.nl 0 3286995 2011-09-20 05:17:51
2557429 instant-content.co.uk 3 21385965 2011-09-20 05:17:52
2557430 intercityhotel.de 5 23514542 2011-09-20 05:17:53
2557431 integralc.com 2 No Rank 2011-09-20 05:17:53
2557432 instant-web-site-tools.com 4 104626 2011-09-20 05:17:53
2557433 medexy.lt 2 No Rank 2011-09-20 05:17:54
2557434 interkerknet.nl 4 No Rank 2011-09-20 05:17:54
2557435 mechta-mebel.ru 3 1299975 2011-09-20 05:17:55
2557436 internationalbachfestival.ca 3 No Rank 2011-09-20 05:17:56
2557437 intellitex.com 3 No Rank 2011-09-20 05:17:56
2557438 intercredit.ru 3 6517071 2011-09-20 05:17:57
2557439 mccary-survey.com 2 No Rank 2011-09-20 05:17:57
2557440 interactjp.com 3 No Rank 2011-09-20 05:17:58
2557441 intercredit.pl 2 No Rank 2011-09-20 05:17:58
2557442 interenergysolutions.com 2 No Rank 2011-09-20 05:17:59
2557443 maurerhotrods.com 1 No Rank 2011-09-21 14:29:20
2557444 inuyasha-bible.net 0 No Rank 2011-09-20 05:18:00
2557445 intruder-alarms.info 2 8426681 2011-09-20 05:18:00
2557446 invisiblesoul.com 1 No Rank 2011-09-20 05:18:01
2557447 keralatourpackages.com 3 396421 2011-09-20 05:18:01
2557448 invest-in-hackney.org.uk 4 No Rank 2011-09-20 05:18:03
2557449 maureenreedforcongress.com 3 23518801 2011-09-20 05:18:03
2557450 martinmangelmann.de 1 No Rank 2011-09-20 05:18:03
2557451 insurancejobsboard.com 4 1462178 2011-09-20 05:18:04
2557452 investmentplanner.net 1 10007729 2011-09-20 05:18:04
2557453 bp.citibank.com.au 4 28976 2011-09-20 05:18:04
2557454 internationalspacestation.com 1 No Rank 2011-09-20 05:18:04
2557455 investethically.com 0 No Rank 2011-09-20 22:31:46
2557456 aquariumfishhobbyist.com 2 12388478 2011-09-20 05:18:05
2557457 marketplaceonline.biz 2 No Rank 2011-09-20 05:18:06
2557458 maps.beresfordtrade.com 0 4047097 2011-09-20 05:18:08
2557459 internationalhouseofcoffee.com 2 No Rank 2011-09-20 05:18:09
2557460 internetszene.de 3 582413 2011-09-20 05:18:09
2557461 interplan.hr 3 17574952 2011-09-20 05:18:10
2557462 inverto-consultancy.nl 4 No Rank 2011-09-20 05:18:11
2557463 inti-imports.com 2 No Rank 2011-09-20 05:18:11
2557464 manoukis.lt 5 1279492 2011-09-20 05:18:12
2557465 internationalcitizens.com 5 4543720 2011-09-20 05:18:12
2557466 atwork.citibank.com.au 0 28976 2011-09-20 05:18:13
2557467 interstroom.nl 4 13535152 2011-09-20 05:18:13
2557468 interwijs.nl 4 8809439 2011-09-20 05:18:14
2557469 internetzone.info 0 7720050 2011-09-20 05:18:14
2557470 interpark.it 3 19193479 2011-09-21 14:46:16
2557471 mariochess.com 0 No Rank 2011-09-20 05:18:16
2557472 manchester.ca 2 15870207 2011-09-20 05:18:17
2557473 iogt.no 4 No Rank 2011-09-20 05:18:18
2557474 iol-uk.co.uk 1 24073809 2011-09-20 05:18:18
2557475 iowagaming.org 4 9827472 2011-09-20 05:18:19
2557476 ipodwiz.com 1 6779214 2011-09-20 05:18:20
2557477 ipd.net 3 No Rank 2011-09-20 05:18:20
2557478 ipages4u.com 3 No Rank 2011-09-20 05:18:20
2557479 iomportal.com 3 12609381 2011-09-20 05:18:20
2557480 imriskk.co.cc 0 No Rank 2011-09-20 05:18:22
2557481 keralax.com 4 1523994 2011-09-20 05:18:23
2557482 maineislandtreasures.com 1 No Rank 2011-09-20 05:18:23
2557483 iplam.com 0 No Rank 2011-09-20 05:18:24
2557484 iphj.com 3 3478464 2011-09-20 05:18:24
2557485 iowacommunications.com 2 17759680 2011-09-20 05:18:25
2557486 magentatasarim.com 0 No Rank 2011-09-20 05:18:27
2557487 ios-ensac.nl 5 8634078 2011-09-20 05:18:27
2557488 iqwareinc.com 3 2340598 2011-09-20 05:18:28
2557489 ir101.com 4 9421178 2011-09-20 05:18:28
2557490 irisquinn.com 2 12138248 2011-09-20 05:18:28
2557491 iprc.nl 4 No Rank 2011-09-20 05:18:28
2557492 maclondon.net 2 No Rank 2011-09-20 05:18:31
2557493 irishphotoshop.com 4 12410965 2011-09-20 05:18:31
2557494 macsekautojavito.hu 0 No Rank 2011-09-20 05:18:31
2557495 irps.org 6 9227407 2011-09-20 05:18:31
2557496 iringpro.com 3 2787195 2011-09-20 05:18:33
2557497 iscar.pl 4 No Rank 2011-09-20 05:18:33
2557498 lysevents.com 0 No Rank 2011-09-20 05:18:34
2557499 irdc-racing.com 3 14727925 2011-09-20 05:18:35
2557500 lumbertagandtally.com 3 No Rank 2011-09-20 05:18:35
2557501 iready.org 3 No Rank 2011-09-20 05:18:35
2557502 iramacorp.com 2 No Rank 2011-09-20 05:18:38
2557503 irnet.co.jp 4 437810 2011-09-20 05:18:38
2557504 lprprecision.com 0 No Rank 2011-09-20 05:18:39
2557505 iro-iro.com 3 8580539 2011-09-20 05:18:39
2557506 interspective.nl 0 No Rank 2011-09-21 14:10:49
2557507 irish-culture.ch 4 No Rank 2011-09-20 05:18:39
2557508 isapower.tv 2 No Rank 2011-09-20 05:18:41
2557509 istartbusiness.com 0 No Rank 2011-09-20 05:18:41
2557510 isp-inf.co.jp 2 No Rank 2011-09-21 14:42:01
2557511 isinspect.org.uk 5 21349941 2011-09-20 05:18:43
2557512 isis.org.uk 5 5333213 2011-09-20 05:18:43
2557513 loveinfobook.com 0 6630020 2011-09-20 05:18:46
2557514 iss2500.co.za 2 No Rank 2011-09-20 05:18:46
2557515 issyk-kul.info 3 4409094 2011-09-20 05:18:47
2557516 islamic.org 7 27245483 2011-09-20 05:18:47
2557517 louisvilleofficepros.com 3 9474815 2011-09-20 05:18:48
2557518 islamabad.diplo.de 6 12972 2011-09-20 05:18:49
2557519 issey-cargo.com 1 No Rank 2011-09-20 05:18:49
2557520 isports-uk.co.uk 1 No Rank 2011-09-20 05:18:49
2557521 islecorp.com 4 1222628 2011-09-20 05:18:50
2557522 lookseepaint.com 3 21579307 2011-09-20 05:18:50
2557523 istanbul.gov.tr 7 595959 2011-09-20 05:18:52
2557524 iso90012000.co.uk 2 27092576 2011-09-20 05:18:54
2557525 iswc2003.semanticweb.org 6 104130 2011-09-20 05:18:54
2557526 locafmlaribera.com 3 2966358 2011-09-20 05:18:54
2557527 itc.or.jp 6 448480 2011-09-20 05:18:54
2557528 livingstonsmiles.com 0 No Rank 2011-09-21 14:16:30
2557529 isnsolutions.co.uk 3 3444665 2011-09-20 05:18:56
2557530 italianconcours.com 3 20294725 2011-09-20 05:18:57
2557531 livemmhall.net 2 5578118 2011-09-20 05:18:58
2557532 italybus.it 4 451930 2011-09-20 05:19:00
2557533 iread2.com 0 No Rank 2011-09-21 14:22:05
2557534 lindseylandscaping.com 2 No Rank 2011-09-20 05:19:04
2557535 lirainwonderland.es 0 No Rank 2011-11-17 05:51:05
2557536 it.answers.yahoo.com 7 4 2011-09-20 05:19:08
2557537 lindqvists.net 2 No Rank 2011-09-20 05:19:08
2557538 ixindu.com 0 1588361 2011-09-20 05:19:09
2557539 italytourism.it 3 3424908 2011-09-20 05:19:10
2557540 lifewithoutdisease.com 0 7098668 2011-09-20 05:19:10
2557541 itellix.com 4 14444046 2011-09-20 05:19:11
2557542 it-production.com 4 422562 2011-09-20 05:19:11
2557543 licensenumberplates.com 2 24081050 2011-09-20 05:19:12
2557544 it-chemi.com 2 No Rank 2011-09-20 05:19:12
2557545 itch.in 0 No Rank 2011-09-21 14:25:40
2557546 leyland-cypress-growers.net 2 No Rank 2011-09-20 05:19:14
2557547 iwakimu.ac.jp 5 723054 2011-09-20 05:19:15
2557548 ivf-motol.cz 3 11633196 2011-09-20 05:19:15
2557549 itcreators.nl 1 No Rank 2011-09-20 05:19:15
2557550 ittoolbox.net 0 No Rank 2011-09-20 05:19:15
2557551 itdevinc.com 0 9113352 2011-09-20 05:19:16
2557552 itsbilly.com 0 No Rank 2011-09-20 05:19:17
2557553 legendranch.com 0 No Rank 2011-09-21 14:45:44
2557554 lenstoryfilms.com 4 No Rank 2011-09-20 05:19:19
2557555 itg.fr 4 1298341 2011-09-20 05:19:20
2557556 ivmasa.com 0 No Rank 2011-09-20 05:19:20
2557557 itindepth.com 2 12444473 2011-09-20 05:19:20
2557558 lebanonscumc.org 0 8365542 2011-09-20 05:19:21
2557559 kes2008.kesinternational.org 5 3191996 2011-09-20 05:19:22
2557560 itsecurity.cz 4 No Rank 2011-09-20 05:19:22
2557561 iyy8.com 0 No Rank 2011-09-20 05:19:25
2557562 ivyhillshavanese.com 0 No Rank 2011-09-20 05:19:25
2557563 itoh.cc 2 No Rank 2011-09-20 05:19:25
2557564 iwcc.ca 3 27687876 2011-09-20 05:19:25
2557565 item-one.com 2 8451393 2011-09-20 05:19:25
2557566 itsligo.ie 7 663290 2011-09-20 05:19:26
2557567 itwason.tv 1 6005079 2011-09-20 05:19:28
2557568 laversranch.com 0 No Rank 2011-09-20 05:19:28
2557569 leaguecenter.org 3 9470446 2011-09-20 05:19:29
2557570 jackmchale.org 1 No Rank 2011-09-20 05:19:29
2557571 janondrus.com 3 No Rank 2011-09-20 05:19:30
2557572 jacobpalm.dk 0 No Rank 2011-09-20 05:19:30
2557573 japanese-incense-esteban-fragrances.com 4 26578155 2011-09-20 05:19:31
2557574 jacksonwilson.com 3 No Rank 2011-09-20 05:19:32
2557575 japan-organ.co.jp 3 9319677 2011-09-20 05:19:32
2557576 lauracooknyc.com 1 No Rank 2011-09-20 05:19:33
2557577 langheier.com 0 21990267 2011-09-20 05:19:33
2557578 jaise.org 5 No Rank 2011-09-20 05:19:34
2557579 janssenpers.nl 3 26467394 2011-09-20 05:19:35
2557580 japan.steinberg.net 5 33093 2011-09-20 05:19:35
2557581 jangletotal.co.kr 3 No Rank 2011-09-21 14:15:27
2557582 jaamejamintl.com 3 No Rank 2011-09-20 05:19:36
2557583 lakezachary.org 0 No Rank 2011-09-20 05:19:36
2557584 jaggallery.com 4 26736706 2011-09-20 05:19:38
2557585 lakepoet.com 2 No Rank 2011-09-20 05:19:38
2557586 jaltravel-h.com 2 No Rank 2011-09-20 05:19:39
2557587 jandkshell.com 2 No Rank 2011-09-20 05:19:39
2557588 jam-conseil.fr 4 3028948 2011-09-20 05:19:41
2557589 lakeoconeebrokers.com 0 19449904 2011-09-20 05:19:41
2557590 japan-manga.com 2 No Rank 2011-09-20 05:19:41
2557591 jacquelinevandongen.nl 1 No Rank 2011-09-20 05:19:41
2557592 jagbags.co.nz 3 13008266 2011-09-20 05:19:42
2557593 j-popcafe.com 4 1842153 2011-09-20 05:19:43
2557594 jamic.co.jp 4 2213263 2011-09-20 05:19:43
2557595 jamesgillco.com 3 No Rank 2011-09-20 05:19:44
2557596 lacabezacr.com 3 10034542 2011-09-20 05:19:47
2557597 jaha.com 0 11308430 2011-09-20 05:19:47
2557598 kes2006.kesinternational.org 5 3191996 2011-09-20 05:19:48
2557599 ivap.org 5 No Rank 2011-09-21 14:45:15
2557600 ladygagaoutfit.com 0 No Rank 2011-09-20 05:19:48
2557601 jackroach.com 0 No Rank 2011-09-20 05:19:48
2557602 jacobsbrothers.com 2 No Rank 2011-09-20 05:19:49
2557603 jammajup.pwp.blueyonder.co.uk 0 19337 2011-09-20 05:19:50
2557604 krikvig.de 3 No Rank 2011-09-20 05:19:52
2557605 jakobstettel.com 3 22858559 2011-09-20 05:19:52
2557606 janey-t.com 0 No Rank 2011-09-20 05:19:54
2557607 jacquart-champagne.fr 4 No Rank 2011-09-20 05:19:54
2557608 jalutoys.com 3 15694499 2011-09-20 05:19:54
2557609 jasonfarris.com 0 No Rank 2011-09-20 05:19:56
2557610 krazycharlies.com 0 No Rank 2011-09-20 05:19:56
2557611 jartdirectmail.com 2 No Rank 2011-09-20 05:19:56
2557612 kotlinews.com 3 3361102 2011-09-20 05:19:57
2557613 jasonwhiton.com 3 18598081 2011-09-20 05:19:57
2557614 jasonguidry.net 0 No Rank 2011-09-20 05:19:58
2557615 ja-newyork.com 5 406654 2011-09-20 05:19:59
2557616 japonci.cz 2 No Rank 2011-09-20 05:20:00
2557617 japaneseteapots.vox.com 0 34126 2011-09-21 14:16:42
2557618 japanesehtml.com 1 No Rank 2011-09-21 15:50:07
2557619 japaneseteapot.livejournal.com 0 85 2011-09-20 05:20:02
2557620 kosmohasfleas.com 0 No Rank 2011-09-21 14:50:49
2557621 ispat.com 5 2064346 2011-09-21 14:17:27
2557622 java.quest.com 0 29232 2011-09-21 13:00:09
2557623 jasonturcotte.com 0 No Rank 2011-09-20 05:20:04
2557624 jasgp.org 5 4436837 2011-09-20 05:20:04
2557625 konexion.ca 2 No Rank 2011-09-20 05:20:05
2557626 kolsteintalent.com 2 22715673 2011-09-20 05:20:05
2557627 jaunde.diplo.de 6 12972 2011-09-20 05:20:06
2557628 javaanseetcafegroningen.nl 4 2651327 2011-09-20 05:20:07
2557629 wala.pl 1 10667339 2011-09-20 05:20:09
2557630 java-animal.org 4 9342279 2011-09-20 05:20:09
2557631 jassylife.com 0 No Rank 2011-09-21 14:04:33
2557632 jc28.org 3 No Rank 2011-09-20 05:20:11
2557633 go2.iphone4onderdelen.nl 0 3286995 2011-09-20 05:20:11
2557634 jatm.umin.jp 4 93089 2011-09-20 05:20:12
2557635 javanen.vinden.nl 3 53728 2011-09-20 05:20:13
2557636 jcmacpherson.com 3 14663425 2011-09-21 15:29:12
2557637 jaybeeprecision.com 2 No Rank 2011-09-20 05:20:13
2557638 kiwicarrentals.co.nz 0 No Rank 2011-09-20 05:20:14
2557639 jeanphilippecote.ca 1 No Rank 2011-09-20 05:20:14
2557640 jersey.uoregon.edu 6 14417 2011-09-21 15:16:31
2557641 jerk2it.com 2 185085 2011-09-20 05:20:15
2557642 jajceforum.tk 0 No Rank 2011-09-20 05:20:16
2557643 jazzserver.org 4 20756116 2011-09-20 05:20:17
2557644 jeremymearsdesign.com 4 16595360 2011-09-20 05:20:17
2557645 kingzaza.com 3 6623029 2011-09-20 05:20:18
2557646 jeremy.chartier.free.fr 0 207 2011-09-20 05:20:18
2557647 jeromesjewelrymarket.com 0 No Rank 2011-09-21 15:32:48
2557648 jc-electric.com 2 No Rank 2011-09-20 05:20:19
2557649 jeffgolub.com 4 1439858 2011-09-20 05:20:19
2557650 jellyroll.com 5 8284832 2011-09-20 05:20:19
2557651 kaiwa-web.net 0 No Rank 2011-09-20 05:20:20
2557652 jce-tech.com 4 558571 2011-09-20 05:20:20
2557653 jeffreyebrownrealty.com 1 16391951 2011-09-20 05:20:21
2557654 kaiserarbitrationlawfirm.com 0 No Rank 2011-09-21 14:15:28
2557655 jdjbl.com 0 No Rank 2011-09-20 05:20:23
2557656 jeffline.tju.edu 5 865945 2011-09-20 05:20:24
2557657 jda.org.uk 4 5743662 2011-09-20 05:20:24
2557658 jennyhaskins.com 2 4794769 2011-09-20 05:20:24
2557659 jericho-underhill.com 4 No Rank 2011-09-20 20:35:12
2557660 kaeruya.biz 2 No Rank 2011-09-20 05:20:26
2557661 jazzclassic.net 3 No Rank 2011-09-20 05:20:28
2557662 jaysquare.com 3 10605698 2011-09-20 05:20:28
2557663 jesprit.com 0 No Rank 2011-09-20 05:20:29
2557664 jet-screamer.com 1 10968226 2011-09-20 05:20:29
2557665 jscisteel.com 2 23453452 2011-09-20 05:20:32
2557666 jetstreamfilms.com 0 No Rank 2011-09-20 05:20:32
2557667 jeugdenhulpverlening.nl 3 No Rank 2011-09-20 05:20:33
2557668 jewelrywhole.blogspot.com 0 No Rank 2011-09-20 05:20:35
2557669 jesustaxi.com 0 No Rank 2011-09-20 05:20:36
2557670 jewel.org 0 5372717 2011-09-20 05:20:37
2557671 jeugdbeweging.org 4 No Rank 2011-09-20 05:20:38
2557672 jerseyshorepeterbilt.com 0 No Rank 2011-09-20 05:20:38
2557673 jrsecurity.com 2 19670555 2011-09-20 05:20:39
2557674 jewishtheater.org 4 8779196 2011-09-20 05:20:39
2557675 jewelrypoint.com 0 No Rank 2011-09-20 05:20:40
2557676 jewelstheband.com 2 No Rank 2011-09-20 05:20:41
2557677 jethworley.com 1 1120411 2011-09-20 05:20:42
2557678 jeugdnetwerk.nl 0 No Rank 2011-09-20 05:20:42
2557679 u.greengangmovers.com 0 No Rank 2011-09-20 05:20:42
2557680 kijkwijzer.nl 6 1312785 2011-09-21 15:31:40
2557681 joyart.cz 3 No Rank 2011-09-20 05:20:43
2557682 jfangel.com 1 No Rank 2011-09-20 05:20:43
2557683 jhltoys.com 0 No Rank 2011-09-20 05:20:43
2557684 jfpp.net 0 No Rank 2011-09-21 15:43:04
2557685 joggingdoublestrollersale.com 1 19549954 2011-09-20 05:20:45
2557686 jfranklingallery.com 0 No Rank 2011-09-20 05:20:46
2557687 smwebdesign.ro 0 26101155 2011-09-20 05:20:47
2557688 jgregersinn.com 3 16963399 2011-09-20 05:20:47
2557689 jhac.com.cn 3 No Rank 2011-09-20 05:20:48
2557690 jfj3419.com.cn 3 14131764 2011-09-20 05:20:48
2557691 jodianthony.com 1 No Rank 2011-09-20 05:20:49
2557692 jh-rg.com 0 No Rank 2011-09-20 05:20:49
2557693 jillcordes.com 3 448736 2011-09-20 05:20:50
2557694 kieranhalpin.com 4 20308537 2011-09-20 05:20:50
2557695 jike-kairo.net 3 No Rank 2011-09-21 13:36:12
2557696 jimbrownspeaker.com 1 No Rank 2011-09-20 05:20:52
2557697 jiko110.com 4 598541 2011-09-20 05:20:53
2557698 jhgibsonphotography.com 0 No Rank 2011-09-20 05:20:54
2557699 jhmmw.com 3 No Rank 2011-09-20 05:20:54
2557700 jiayisoft.com 0 5324424 2011-09-20 05:20:56
2557701 jilliansurvey.com 0 No Rank 2011-09-20 05:20:56
2557702 jiaolongcn.com 2 No Rank 2011-09-20 05:20:57
2557703 jixis.com 2 No Rank 2011-09-20 05:20:57
2557704 jdmdepot.us 0 No Rank 2011-09-20 05:20:57
2557705 jixuyao.com 0 No Rank 2011-09-20 05:21:00
2557706 jinxinmp.com 0 No Rank 2011-09-20 05:21:01
2557707 bandieragialla.it 5 1679029 2011-09-20 05:21:01
2557708 keswalls.co.uk 3 25452046 2011-09-21 15:23:42
2557709 javedkellis.com 1 No Rank 2011-09-20 05:21:02
2557710 jinnpod.com 2 No Rank 2011-09-20 05:21:03
2557711 jimweatherly.com 2 No Rank 2011-09-20 05:21:04
2557712 jj-kan.com 3 No Rank 2011-09-21 15:25:29
2557713 kinesiologyconnection.com 1 No Rank 2011-09-21 14:59:07
2557714 jiyugaoka.info 2 No Rank 2011-09-20 05:21:10
2557715 jobwantedads.com 0 20799942 2011-09-20 05:21:14
2557716 jimmckaychevrolet.com 3 8531122 2011-09-20 05:21:14
2557717 jlok.com 3 3208278 2011-09-20 05:21:15
2557718 johnnyrestaurant.com 3 3550142 2011-09-20 05:21:19
2557719 jnwanka.com 2 17719098 2011-09-20 05:21:20
2557720 johnmacleanphotography.com 3 16433981 2011-09-20 05:21:20
2557721 joelstrellner.com 2 21504427 2011-09-20 05:21:21
2557722 jobsmill.com 2 2999497 2011-09-20 05:21:22
2557723 jnec.com 1 No Rank 2011-09-20 05:21:23
2557724 johngodrich.co.uk 3 No Rank 2011-09-20 05:21:24
2557725 jm-reynaud.com 4 2812382 2011-09-20 05:21:26
2557726 jndsb.net 0 5599314 2011-09-20 05:21:28
2557727 jok.org.uk 4 13438702 2011-09-20 05:21:28
2557728 johnmeyerconsulting.com 3 No Rank 2011-09-20 05:21:29
2557729 jinmayi.com 0 No Rank 2011-09-21 14:39:30
2557730 jodymarten.com 2 18460945 2011-09-20 05:21:33
2557731 jnxinye.com 2 No Rank 2011-09-20 05:21:34
2557732 jmyiyuan.com 3 No Rank 2011-09-21 15:18:05
2557733 jiuwei999.com 0 No Rank 2011-09-21 14:46:34
2557734 job-search.co.cc 0 No Rank 2011-09-20 05:21:36
2557735 jasleensidhu.com 0 No Rank 2011-09-20 05:21:38
2557736 shuomeng.net 3 5393841 2011-09-20 19:16:27
2557737 joestanderline.co.uk 2 No Rank 2011-09-20 05:21:38
2557738 jmf.org 4 8285848 2011-09-20 05:21:41
2557739 jnatip.org 0 No Rank 2011-09-20 05:21:44
2557740 jmfy.com 0 15306008 2011-09-21 14:39:02
2557741 iucnarabianpsg.org 4 14116942 2011-09-20 05:21:48
2557742 jobtxt.nl 0 No Rank 2011-09-21 14:45:32
2557743 jmja.net 4 No Rank 2011-09-20 05:21:49
2557744 jogevalv.ee 0 26752496 2011-09-20 05:21:49
2557745 jlsrubberstamp.com 3 No Rank 2011-09-21 14:46:55
2557746 kingarthurbooks.com 3 No Rank 2011-09-20 05:21:54
2557747 jmwsyq.com 0 No Rank 2011-09-20 05:21:54
2557748 itwassoeasy.com 2 22016069 2011-09-20 05:21:54
2557749 j-j.com 0 No Rank 2011-09-20 18:30:24
2557750 jmhuasheng.com 1 No Rank 2011-09-20 05:21:55
2557751 joemcdermottmusic.com 4 No Rank 2011-09-20 05:21:56
2557752 itcmiami.org 2 18513328 2011-09-20 05:21:57
2557753 jouwdate.nl 2 No Rank 2011-09-20 05:21:57
2557754 josephgardenramblings.blogspot.com 0 No Rank 2011-09-20 05:21:58
2557755 journaledition.com 4 22623000 2011-09-20 05:21:58
2557756 jpcea.or.jp 4 4427277 2011-09-20 05:22:00
2557757 jobother.com 3 567502 2011-09-20 05:22:01
2557758 jsmlr.gov.cn 7 2597584 2011-09-21 14:09:41
2557759 jsenglish.com 3 No Rank 2011-09-20 05:22:02
2557760 jrasports.com 2 No Rank 2011-09-21 14:41:52
2557761 iro.nl 5 9218333 2011-09-20 05:22:03
2557762 jspolympus.com 0 No Rank 2011-09-20 05:22:03
2557763 kingmenet.com 2 No Rank 2011-09-20 05:22:04
2557764 gotowallpapers.com 3 343912 2011-09-20 05:22:04
2557765 jobs.com.cn 0 25993393 2011-09-21 15:15:42
2557766 jpaa.gr.jp 4 4595011 2011-09-20 05:22:06
2557767 joongang.co.kr 6 718120 2011-09-20 05:22:06
2557768 jolmy.com 3 No Rank 2011-09-20 05:22:06
2557769 iqr.com 2 12122350 2011-09-20 05:22:06
2557770 jomagyararu.hu 3 4093025 2011-09-20 05:22:07
2557771 kiosque.fr 0 No Rank 2011-09-20 05:22:11
2557772 joodszeeland.nl 3 No Rank 2011-09-20 05:22:11
2557773 iotaiota.com 2 13888150 2011-09-20 05:22:11
2557774 jordanelderlaw.com 0 No Rank 2011-09-21 15:28:58
2557775 joymission.org 0 13277497 2011-09-20 05:22:12
2557776 jonikerley.com 1 No Rank 2011-09-20 05:22:13
2557777 joycerenee.com 3 No Rank 2011-09-20 05:22:14
2557778 investorresources.com 1 No Rank 2011-09-20 05:22:15
2557779 journeytofinancialfree.blogspot.com 1 13988916 2011-09-20 05:22:15
2557780 kippenhokken.nl 3 5520264 2011-09-20 05:22:15
2557781 jspe.jp 4 No Rank 2011-09-20 05:22:16
2557782 jr-golf.blogspot.com 0 No Rank 2011-09-20 05:22:18
2557783 jsninja.com 6 334435 2011-09-20 05:22:18
2557784 jsonline.net 4 2957368 2011-09-20 05:22:20
2557785 justinwiz.com 3 15702423 2011-09-20 05:22:22
2557786 jovixu.com 3 No Rank 2011-09-20 05:22:23
2557787 junipercivic.com 4 5537060 2011-09-20 05:22:24
2557788 jumbo.co.il 3 2114446 2011-09-21 14:14:35
2557789 jsyulong.com 0 No Rank 2011-09-20 05:22:24
2557790 intezmenyvezetes.hu 0 2356206 2011-09-20 05:22:25
2557791 jgsew.com 0 No Rank 2011-09-21 15:23:16
2557792 juggling.co.uk 5 15383083 2011-09-20 05:22:28
2557793 kiskeyanconnection.com 3 5865693 2011-09-20 05:22:29
2557794 justsilenthill.com 2 No Rank 2011-09-20 05:22:30
2557795 ka-boom.com.mx 3 1926300 2011-09-20 05:22:31
2557796 k-atarim.com 4 10627160 2011-09-20 05:22:31
2557797 jzstone.com 0 No Rank 2011-09-20 05:22:32
2557798 westernfishingoperations.com 2 No Rank 2011-09-20 05:22:33
2557799 juwelier.net 2 523849 2011-09-20 05:22:33
2557800 juliesristorante.com 3 No Rank 2011-09-20 05:22:33
2557801 jxzxks.com 6 7476222 2011-09-20 05:22:35
2557802 wasmed.bielsko.pl 3 45078 2011-09-20 05:22:36
2557803 justfavors.com 0 No Rank 2011-09-21 12:52:48
2557804 kitecompany.com 3 14536210 2011-09-20 05:22:37
2557805 jszdcc.com 1 No Rank 2011-09-20 05:22:39
2557806 jucst.org 6 No Rank 2011-09-20 05:22:40
2557807 kitsch.moo.jp 0 1866 2011-09-20 05:22:41
2557808 juniormuscle.co.uk 0 No Rank 2011-09-21 15:08:40
2557809 jy-zx.com 2 8329688 2011-09-20 05:22:43
2557810 jushengjixie.com 1 No Rank 2011-09-20 05:22:45
2557811 jvtally.com 3 No Rank 2011-09-20 05:22:45
2557812 jstcc.com 5 3291710 2011-09-21 14:12:17
2557813 jyuken.co.jp 2 6364031 2011-09-20 05:22:47
2557814 jubileetheatre.com 0 11205139 2011-09-20 05:22:48
2557815 jugendserver.de 6 25900249 2011-09-20 05:22:50
2557816 jyxuri.com 0 No Rank 2011-09-21 15:11:52
2557817 kittyhugs.com 0 No Rank 2011-09-21 15:28:02
2557818 junglestore.com 0 29009782 2011-09-21 12:48:32
2557819 just-cn.ebigchina.com 0 1133395 2011-09-20 05:22:53
2557820 judger.com.cn 5 1148400 2011-09-21 14:58:57
2557821 jules-jordan.net 0 No Rank 2011-09-20 05:22:54
2557822 plasticbagsuppliers.org 0 No Rank 2011-09-20 05:22:54
2557823 jubileehome.com 0 No Rank 2011-09-20 05:22:56
2557824 jx263.com 3 No Rank 2011-09-20 05:22:57
2557825 jzsy.com 0 No Rank 2011-09-21 15:26:39
2557826 jqgm.com 0 17593029 2011-09-21 15:11:39
2557827 lteforum.pl 0 15674671 2011-09-21 14:24:39
2557828 kjxn.com.cn 3 12808310 2011-09-20 05:23:00
2557829 kleurenkledingadvies.net 2 No Rank 2011-09-20 05:23:01
2557830 mia-art.at 1 No Rank 2011-09-20 05:23:02
2557831 kkkbo.andrinda.net 0 2843315 2011-09-20 05:23:02
2557832 karma.ie 4 18203385 2011-09-20 05:23:02
2557833 kachlan.com 0 24296972 2011-09-20 05:23:03
2557834 mfu.epointplan.zapto.org 0 18777 2011-09-20 05:23:04
2557835 kinectsensor.info 0 No Rank 2011-09-20 05:23:06
2557836 nileup.com 0 5590750 2011-09-20 05:23:06
2557837 kellytours.com 3 5343910 2011-09-20 05:23:07
2557838 kccs.org 4 No Rank 2011-09-21 14:58:21
2557839 mavi.sbs.com.tr 0 4763456 2011-09-20 05:23:07
2557840 kfbl.edu.ba 4 15864006 2011-09-20 05:23:08
2557841 yonitmozes.com 4 9101480 2011-09-20 05:23:09
2557842 kajcarpet.com 0 No Rank 2011-09-20 18:51:28
2557843 klcradio.net 4 22894366 2011-09-20 05:23:09
2557844 love1421.com 0 No Rank 2011-09-21 14:11:59
2557845 kai.ie 5 17642464 2011-09-20 05:23:10
2557846 kakamigaharakanko.org 3 4119762 2011-09-20 05:23:12
2557847 nilemotors.net 1 28660 2011-09-21 15:34:38
2557848 ketesaruk.hu 4 2991338 2011-09-20 05:23:14
2557849 kaiseki.com 4 2505322 2011-09-20 05:23:15
2557850 kayakcapetown.co.za 4 1648389 2011-09-20 05:23:16
2557851 kanegeotech.com 3 19061497 2011-09-20 05:23:18
2557852 516gu.com 0 No Rank 2011-09-21 15:24:44
2557853 kadomasou.jp 0 No Rank 2011-09-20 05:23:20
2557854 kaisen-rakuichi.com 2 No Rank 2011-09-20 05:23:21
2557855 kaltimpost.web.id 4 17036254 2011-09-20 05:23:21
2557856 kanal.no-ip.info 0 1368 2011-09-20 05:23:21
2557857 kagoshimakenjinkai.ne.jp 4 8469709 2011-09-20 05:23:22
2557858 karperrun.com 3 No Rank 2011-09-20 05:23:23
2557859 kluger.mods.jp 1 3369 2011-09-20 05:23:29
2557860 weldingflash.com.au 0 7201320 2011-09-20 05:23:31
2557861 kmco.com 4 4995087 2011-09-20 05:23:33
2557862 knightsystemsinc.com 2 No Rank 2011-09-20 05:23:36
2557863 knittingbag.com 2 6238610 2011-09-20 05:23:41
2557864 mail.jwfu.com 0 144608 2011-09-21 14:11:08
2557865 freesexygames.com 3 No Rank 2011-09-20 05:23:56
2557866 knsearch.com 0 No Rank 2011-09-20 05:24:01
2557867 losangelescahotels.info 0 No Rank 2011-09-20 05:24:01
2557868 knittingpretty.com 1 No Rank 2011-09-20 05:24:10
2557869 kocakgila.com 3 3442746 2011-09-20 05:24:14
2557870 schlosberg.com 0 No Rank 2011-09-21 14:14:07
2557871 kobalttools.com 5 2030595 2011-09-20 05:24:38
2557872 koelnwein.com 2 No Rank 2011-09-20 05:24:50
2557873 air-mattresses.net 1 No Rank 2011-09-20 05:25:16
2557874 kodomo-center.org 0 No Rank 2011-09-20 05:25:23
2557875 studremovers.com 1 No Rank 2011-09-20 05:25:28
2557876 informatiquechezvous.com 2 12183251 2011-09-20 05:25:31
2557877 kohlssuppliers.com 5 No Rank 2011-09-20 05:25:32
2557878 mightylib.ydir.de 0 21440249 2011-09-20 05:25:38
2557879 mightylib.youwow.de 0 8921833 2011-09-20 05:25:46
2557880 kolardesign.com 0 25740219 2011-09-20 05:25:52
2557881 infinitybalivillas.com 1 1051791 2011-09-20 05:25:54
2557882 documentingourworld.com 1 No Rank 2011-09-20 05:25:54
2557883 luke.star1025.com 2 693227 2011-09-20 05:25:56
2557884 indiepluggers.com 1 26256307 2011-09-20 05:25:58
2557885 kolisrael.net 5 108300 2011-09-20 05:26:00
2557886 mightylib.ydirs.de 0 14957670 2011-09-20 05:26:08
2557887 konamidwestracing.com 0 No Rank 2011-09-20 05:26:17
2557888 toronto.en.hovezi.tk 0 No Rank 2011-09-20 05:26:25
2557889 konishishunya.org 2 No Rank 2011-09-20 05:26:26
2557890 music.beresfordtrade.com 0 4047097 2011-09-20 05:26:28
2557891 sf.avilan.de 0 No Rank 2011-09-20 05:26:29
2557892 immobilecapitale.hu 2 No Rank 2011-09-20 05:26:30
2557893 illustratedpenis.com 1 3471489 2011-09-20 05:26:35
2557894 igodirect.net 2 9935837 2011-09-20 05:26:41
2557895 idegypt.com 0 No Rank 2011-09-21 14:50:51
2557896 icontact.it 0 16827407 2011-09-20 05:26:46
2557897 wiktoria.wczasy.pl 0 1572434 2011-09-20 05:26:51
2557898 iasiinvest.ro 4 4766615 2011-09-20 05:26:55
2557899 iamkiaspeaks.com 1 7997344 2011-09-20 05:27:04
2557900 treasure.forumotion.net 1 7124 2011-09-20 05:27:08
2557901 hustler-boats.com 1 16925292 2011-09-20 05:27:09
2557902 koreadesk.org 0 No Rank 2011-09-20 05:27:11
2557903 hungrr.com 3 No Rank 2011-09-20 05:27:13
2557904 hungerfordstuff.com 0 No Rank 2011-09-20 05:27:17
2557905 korpllc.com 0 No Rank 2011-09-20 05:27:21
2557906 humin-kusuri.com 0 No Rank 2011-09-20 05:27:26
2557907 htfswinegenetics.com 3 14609136 2011-09-20 05:27:28
2557908 hq-capacitor.com 0 No Rank 2011-09-20 05:27:34
2557909 houstontexasvending.com 0 No Rank 2011-09-20 05:27:36
2557910 kraigkiedrowski.com 1 8814501 2011-09-20 05:27:37
2557911 harakah.com 1 No Rank 2011-09-20 05:27:39
2557912 hotel-in-england.com 2 18906715 2011-09-20 05:27:40
2557913 homelandheroes.org 0 No Rank 2011-09-20 05:27:44
2557914 wodzislaw.upow.gov.pl 4 10818398 2011-09-20 05:27:44
2557915 hootnscoot.com 1 No Rank 2011-09-20 05:27:44
2557916 blog.beresfordtrade.com 0 4047097 2011-09-20 05:27:46
2557917 higginsdrilling.com 0 No Rank 2011-09-20 05:27:52
2557918 homebuilderswr.com 3 12442799 2011-09-20 05:27:55
2557919 kpacotka.at.ua 0 181 2011-09-20 05:27:56
2557920 cebu-mega.com 0 13022838 2011-09-20 05:27:56
2557921 101cashmoney.com 0 No Rank 2011-09-20 05:28:01
2557922 help4energy.com 0 No Rank 2011-09-20 05:28:02
2557923 healingandtransformationcenter.com 0 No Rank 2011-09-20 05:28:06
2557924 harkinsinvestment.com 0 No Rank 2011-09-21 09:44:28
2557925 hardtailzhd.com 1 No Rank 2011-09-20 05:28:10
2557926 handrfurniture.com 2 23447709 2011-09-21 13:35:34
2557927 krestonwines.com 3 4425744 2011-09-20 05:28:18
2557928 handel-wenk-brautmoden.de 1 No Rank 2011-09-20 05:28:19
2557929 hainefashion.ro 2 127574 2011-09-20 05:28:26
2557930 hakkiceylan.com 4 301086 2011-09-20 05:28:26
2557931 mpdentalclinic.com 2 No Rank 2011-09-20 05:28:30
2557932 haaf.de 1 No Rank 2011-09-20 05:28:36
2557933 gumberg.com 1 11670889 2011-09-20 05:28:39
2557934 kremperheide.de 2 No Rank 2011-09-20 05:28:43
2557935 gx1314.com 0 16789761 2011-09-21 14:36:08
2557936 poa-class.info 0 16268188 2011-09-20 05:28:45
2557937 guitarforcoolkids.com 2 No Rank 2011-09-20 05:28:47
2557938 microcam.safeshopper.com 0 211950 2011-09-20 05:28:52
2557939 gscdesign.com 1 7981120 2011-09-20 05:28:55
2557940 grigio.com 4 4698515 2011-09-20 05:28:57
2557941 krautok.com 3 4213860 2011-09-20 05:29:00
2557942 kristyandsmith.com 3 No Rank 2011-09-20 05:29:00
2557943 greenmountains-sy.com 0 No Rank 2011-09-20 05:29:02
2557944 gremlinmedia.net 2 19101131 2011-09-20 05:29:03
2557945 greenkiwi.org.nz 3 No Rank 2011-09-20 05:29:06
2557946 krollworldwide.com 6 21320125 2011-09-20 05:29:07
2557947 greatlifeintlevents.com 0 No Rank 2011-09-20 05:29:10
2557948 grainbeltrecords.com 3 22466372 2011-09-20 05:29:17
2557949 grazvalda.lt 3 No Rank 2011-09-20 05:29:18
2557950 gourmetblends.us 3 1049810 2011-09-20 05:29:21
2557951 goodandhealthylife.com 0 No Rank 2011-09-20 05:29:27
2557952 golfingcruises.net 0 No Rank 2011-09-20 05:29:28
2557953 goldbergaccounting.com 0 No Rank 2011-09-20 05:29:33
2557954 goinwiththeflo.com 3 5988747 2011-09-20 05:29:37
2557955 gloucestercarsales.com 0 No Rank 2011-09-21 13:10:08
2557956 girlspresents.org 0 No Rank 2011-09-20 05:29:44
2557957 gemsbahamas.com 0 9412951 2011-09-20 05:29:55
2557958 globalera.org 0 No Rank 2011-09-21 09:27:44
2557959 gearboxnetworks.com 0 No Rank 2011-09-20 05:30:17
2557960 gat-bg.com 0 27749318 2011-09-20 05:30:17
2557961 gardinenvetter.de 2 4766096 2011-09-20 05:30:22
2557962 wwg.com.pl 3 7196642 2011-09-21 15:00:53
2557963 ktekbooms.com 4 2352104 2011-09-20 05:30:26
2557964 garagedoorrepairco.com 0 No Rank 2011-09-20 05:30:27
2557965 whrproperty.co.uk 2 7116611 2011-09-20 05:30:27
2557966 worldfreemansociety.org 4 282843 2011-09-20 05:30:30
2557967 gamma-group.biz 1 No Rank 2011-09-20 05:30:32
2557968 gameplay2.ru 1 No Rank 2011-09-20 05:30:33
2557969 gaggenauservis.com 1 16611226 2011-09-20 05:30:37
2557970 kuenzlireininghorses.com 3 No Rank 2011-09-20 05:30:37
2557971 fulbright.ru 4 688830 2011-09-20 05:30:42
2557972 tu.iphone4onderdelen.nl 0 3286995 2011-09-20 05:30:42
2557973 frontsightfinancial.com 3 15651063 2011-09-20 05:30:45
2557974 fromdespairtovictory.net 0 No Rank 2011-09-20 05:30:48
2557975 kuba-cuba.com 5 28997671 2011-09-21 14:16:08
2557976 kunsthal-groningen.nl 3 No Rank 2011-09-20 05:30:57
2557977 kukiko.chu.jp 0 1866 2011-09-21 15:45:31
2557978 kuruiduki.fool.jp 0 57903 2011-09-21 15:20:29
2557979 fxglobaltrading.com 0 No Rank 2011-09-20 19:15:18
2557980 kutenk2000.blogspot.com 3 610263 2011-09-20 05:31:10
2557981 kutyakikepzes.net 3 3626988 2011-09-20 05:31:19
2557982 kutyaiskola.net 2 1648878 2011-09-20 05:31:34
2557983 kuyaba.com 3 21877085 2011-09-20 05:31:36
2557984 kwwidgets.org 4 13991417 2011-09-21 14:42:13
2557985 bestdehumidifiersforhome.com 0 7294033 2011-09-20 05:31:44
2557986 freedompet.com 2 No Rank 2011-09-20 05:31:53
2557987 free-loan-resource.info 1 3422498 2011-09-20 05:31:58
2557988 freeblogjob.com 0 No Rank 2011-09-20 05:31:59
2557989 frankpcmedic.com 0 No Rank 2011-09-20 05:32:02
2557990 kvtz.com 0 No Rank 2011-09-20 05:32:03
2557991 france-handicap-info.fr 3 No Rank 2011-09-20 05:32:06
2557992 lab.mathieu-badimon.com 4 500620 2011-09-20 05:32:09
2557993 fossilcreekurgentcare.com 0 16607524 2011-09-20 05:32:10
2557994 fosna-folket.no 6 576517 2011-09-20 05:32:14
2557995 la-do.com 2 No Rank 2011-09-20 05:32:15
2557996 forward-sport.ru 4 1021790 2011-09-20 05:32:16
2557997 forexdataproviders.com 1 No Rank 2011-09-20 05:32:20
2557998 forestwildlifeart.com 3 6074198 2011-09-20 05:32:20
2557999 foodfirst.com 3 2273612 2011-09-20 05:32:25